Back to catalog

THORAD DELTA 1 DEB

AliveLEO
NORAD 42598·DEBRIS·🇺🇸 United States

Launched Nov 15, 1974 from Vandenberg Space Force Base

Loading…

Next Passes (next 24 hours)

TLE

AgingSource: Space-Track

Epoch: Sep 11, 2026, 21:57 UTC

1 42598U 74089FP  26254.91517203  .00000336  00000-0  26062-2 0  9993
2 42598 102.7878 290.9764 0182944  78.9630 283.1948 12.43092253580347

Track THORAD DELTA 1 DEB in real time with AllMySat

Download on the App Store